This is the latest recevied weather packets stored in our database for station/object K0CPM-2. If no packets are shown the sender has not sent any weather packets the latest 10 day(s).
| Time | Temp. | Humidity | Pressure | Rain* | Wind** | Luminosity | Snow |
|---|---|---|---|---|---|---|---|
| 1788556549 | 32.78° C | 66% | 1010 hPa | 0 mm | - | - | - |
| 1788555648 | 33.33° C | 67% | 1009.9 hPa | 0 mm | - | - | - |
| 1788554746 | 32.78° C | 67% | 1009.8 hPa | 0 mm | - | - | - |
| 1788553848 | 32.78° C | 67% | 1009.9 hPa | 0 mm | - | - | - |
| 1788552957 | 33.33° C | 68% | 1010.1 hPa | 0 mm | - | - | - |
| 1788552045 | 33.33° C | 66% | 1010.3 hPa | 0 mm | - | - | - |
| 1788551139 | 32.78° C | 69% | 1010.4 hPa | 0 mm | - | - | - |
| 1788550239 | 32.22° C | 70% | 1010.7 hPa | 0 mm | - | - | - |
| 1788549339 | 32.78° C | 75% | 1010.9 hPa | 0 mm | - | - | - |
| 1788548434 | 32.22° C | 73% | 1011.2 hPa | 0 mm | - | - | - |
| 1788547540 | 31.67° C | 74% | 1011.5 hPa | 0 mm | - | - | - |
| 1788546631 | 31.67° C | 77% | 1011.8 hPa | 0 mm | - | - | - |
| 1788545735 | 31.67° C | 74% | 1011.9 hPa | 0 mm | - | - | - |
| 1788544828 | 31.67° C | 76% | 1012 hPa | 0 mm | - | - | - |
| 1788543927 | 30.56° C | 78% | 1012.1 hPa | 0 mm | - | - | - |
| 1788543024 | 30° C | 79% | 1012.2 hPa | 0 mm | - | - | - |
| 1788542130 | 29.44° C | 82% | 1012.1 hPa | 0 mm | - | - | - |
| 1788541217 | 29.44° C | 83% | 1012.1 hPa | 0 mm | - | - | - |
| 1788540317 | 29.44° C | 82% | 1012.4 hPa | 0 mm | - | - | - |
| 1788539420 | 29.44° C | 82% | 1012.6 hPa | 0 mm | - | - | - |
| 1788538516 | 30° C | 84% | 1012.7 hPa | 0 mm | - | - | - |
| 1788537611 | 29.44° C | 84% | 1012.7 hPa | 0 mm | - | - | - |
| 1788536711 | 28.89° C | 86% | 1012.6 hPa | 0 mm | - | - | - |
| 1788535808 | 28.89° C | 87% | 1012.5 hPa | 0 mm | - | - | - |
| 1788534906 | 28.33° C | 89% | 1012.5 hPa | 0 mm | - | - | - |
* Rain latest hour (hover to see other rain measurements)
** Current wind speed in m/s (hover to see current wind gust speed)